This is the latest recevied weather packets stored in our database for station/object KO4ZGL-13. If no packets are shown the sender has not sent any weather packets the latest 10 day(s).
| Time | Temp. | Humidity | Pressure | Rain* | Wind** | Luminosity | Snow |
|---|---|---|---|---|---|---|---|
| 1787767335 | 22.78° C | 99% | 1017.5 hPa | 0 mm | - | 38 W/m² | - |
| 1787767035 | 22.78° C | 99% | 1017.8 hPa | 0 mm | - | 40 W/m² | - |
| 1787766733 | 22.78° C | 99% | 1017.6 hPa | 0 mm | - | 43 W/m² | - |
| 1787766433 | 22.78° C | 99% | 1017.8 hPa | 0 mm | - | 45 W/m² | - |
| 1787766128 | 22.22° C | 99% | 1017.6 hPa | 0 mm | - | 45 W/m² | - |
| 1787765823 | 22.78° C | 99% | 1017.4 hPa | 0 mm | - | 43 W/m² | - |
| 1787765520 | 22.22° C | 99% | 1017.7 hPa | 0 mm | - | 41 W/m² | - |
| 1787765219 | 22.78° C | 99% | 1018.2 hPa | 0 mm | - | 37 W/m² | - |
| 1787764918 | 22.78° C | 99% | 1018.6 hPa | 1.78 mm | - | 38 W/m² | - |
| 1787764614 | 22.78° C | 99% | 1018.6 hPa | 1.78 mm | - | 42 W/m² | - |
| 1787764308 | 22.78° C | 99% | 1018.8 hPa | 0 mm | - | 41 W/m² | - |
| 1787764005 | 22.78° C | 99% | 1018.8 hPa | 1.27 mm | - | 39 W/m² | - |
| 1787763700 | 22.78° C | 99% | 1018.6 hPa | 3.05 mm | - | 36 W/m² | - |
| 1787763395 | 22.78° C | 99% | 1018.7 hPa | 4.83 mm | - | 36 W/m² | - |
| 1787763094 | 22.78° C | 99% | 1018.6 hPa | 4.83 mm | - | 32 W/m² | - |
| 1787762789 | 22.78° C | 99% | 1018.8 hPa | 9.65 mm | - | 28 W/m² | - |
| 1787762484 | 23.33° C | 98% | 1018.6 hPa | 21.08 mm | - | 26 W/m² | - |
| 1787762181 | 23.89° C | 98% | 1019.2 hPa | 19.81 mm | - | 23 W/m² | - |
| 1787761876 | 23.89° C | 98% | 1019.2 hPa | 6.1 mm | - | 21 W/m² | - |
| 1787761571 | 23.89° C | 98% | 1019.3 hPa | 1.27 mm | - | 18 W/m² | - |
| 1787761266 | 23.89° C | 97% | 1019.9 hPa | 3.05 mm | - | 12 W/m² | - |
| 1787760964 | 24.44° C | 97% | 1019.4 hPa | 13.72 mm | - | 6 W/m² | - |
| 1787760658 | 24.44° C | 96% | 1019.5 hPa | 16.76 mm | - | 6 W/m² | - |
| 1787760357 | 24.44° C | 95% | 1019.2 hPa | 7.87 mm | - | 6 W/m² | - |
| 1787760051 | 25° C | 94% | 1018.4 hPa | 0 mm | - | 17 W/m² | - |
* Rain latest hour (hover to see other rain measurements)
** Current wind speed in m/s (hover to see current wind gust speed)